Tracking 35030 objects as of 9-Aug-2026
HD Live streaming from Space Station
objects crossing your sky now

NAVSTAR 77 (USA 289)

Track NAVSTAR 77 (USA 289) now!
NAVSTAR 77 (USA 289) is classified as:


NORAD ID: 43873
Int'l Code: 2018-109A
Launch date: December 23, 2018
Source: United States (US)
Launch site: AIR FORCE EASTERN TEST RANGE (AFETR)
PRN: 4
Your satellite tracking list
Your tracking list is empty




NASA's NSSDC Master Catalog

Two Line Element Set (TLE):
1 43873U 18109A   26221.11332318 -.00000016  00000-0  00000+0 0  9996
2 43873  55.7147  90.0984 0039077 196.6009 342.3519  2.00563670 56134
Source of the keplerian elements: AFSPC